Regional Weather Roundup
Issued by NWS Kansas City/Pleasant Hill, MO

Home | Current Version | Previous Version | Graphics & Text | Print | Product List | Glossary Off
Versions: 1 2 3 4 5 6 7 8 9 10 11 12 13 14 15 16 17 18 19 20 21 22 23 24 25 26 27 28 29 30 31 32 33 34 35 36 37 38 39 40 41 42 43 44 45 46 47 48 49 50

000
ASUS43 KEAX 290004
RWREAX

WEATHER ROUNDUP FOR EASTERN KANSAS AND NORTHWEST MISSOURI
NATIONAL WEATHER SERVICE KANSAS CITY/PLEASANT HILL MO
600 PM CST WED JAN 28 2015

KSZ040-057-103>105-MOZ028-029-037-043-290100-
...KANSAS CITY METROPOLITAN AREA...

CITY           SKY/WX    TMP DP  RH WIND       PRES   REMARKS
K.C. INTL      MOCLDY    66  39  37 SW13      29.69R
6HR MIN TEMP:  66; 6HR MAX TEMP:  73;

K.C. DOWNTOWN  MOCLDY    70  38  31 S17       29.68F
6HR MIN TEMP:  68; 6HR MAX TEMP:  76; 6HR PCP: TRACE;

LEES SUMMIT    MOCLDY    69  37  30 S15G24    29.71S
6HR MIN TEMP:  64; 6HR MAX TEMP:  73;

OLATHE - IXD   MOCLDY    65  40  39 S15       29.73R
6HR MIN TEMP:  65; 6HR MAX TEMP:  74;

OLATHE - OJC   MOCLDY    67  40  37 SW13      29.72R
6HR MIN TEMP:  65; 6HR MAX TEMP:  74;

LAWRENCE       MOCLDY    68  38  33 SW16G23   29.71R

$$

MOZ001>008-011>017-020>025-030>033-038>040-044>046-053-054-290100-
...NORTHERN AND CENTRAL MISSOURI...

CITY           SKY/WX    TMP DP  RH WIND       PRES   REMARKS
ST. JOSEPH     MOCLDY    65  39  38 W12       29.68R
6HR MIN TEMP:  63; 6HR MAX TEMP:  73;

MOSBY          MOCLDY    68  36  30 S8        29.68F
WARRENSBURG    MOCLDY    61  39  44 SE10      29.74S
WHITEMAN AFB   MOCLDY    60  41  48 S16       29.74S
6HR MIN TEMP:  60; 6HR MAX TEMP:  69;

CLINTON        MOCLDY    63  41  45 S13       29.78S
SEDALIA        MOCLDY    61  38  42 S17       29.77S
6HR MIN TEMP:  61; 6HR MAX TEMP:  69; 6HR PCP: TRACE;

WARSAW         NOT AVBL
MARSHALL       MOCLDY    64  43  45 S15G21    29.76R
CHILLICOTHE      N/A     62  41  46 S12       29.69F
6HR MIN TEMP:  54; 6HR MAX TEMP:  66;

MOBERLY        MOCLDY    55  36  47 SE15G21   29.76F
KIRKSVILLE     CLOUDY    48  38  68 SE12      29.74S
6HR MIN TEMP:  43; 6HR MAX TEMP:  52;


$$

MOZ041-047>049-056>058-063>065-088>090-097-290100-
...EASTERN AND SOUTHERN MISSOURI...

CITY           SKY/WX    TMP DP  RH WIND       PRES   REMARKS
ST. LOUIS INTL MOCLDY    47  32  56 SE14G22   29.95F
6HR MIN TEMP:  43; 6HR MAX TEMP:  50;

SPIRIT OF STL  MOCLDY    50  31  48 S9G17     29.93S
COLUMBIA       MOCLDY    55  36  48 S20       29.81F
JEFFERSON CITY MOCLDY    56  35  45 SE14      29.83F
MEXICO         MOCLDY    52  41  66 SE17      29.81F
HANNIBAL       CLOUDY    50  30  46 SE12G20   29.80F
ROLLA          MOCLDY    50  33  52 S14       29.89S
LEBANON        MOCLDY    54  34  47 S14       29.87F
OSAGE BEACH    MOCLDY    55  34  44 S13       29.85F
SPRINGFIELD    MOCLDY    63  38  39 S14       29.86F
BRANSON        MOCLDY    61  39  44 S15       29.93F
NEVADA         MOCLDY    66  39  37 S18G25    29.79F
JOPLIN         MOCLDY    67  39  35 S23G30    29.82F
WEST PLAINS    MOCLDY    49  33  54 S12       30.00R

$$

IAZ060-094-KSZ022-034>040-054-083-096-NEZ052-066-093-290100-
...KANSAS...SOUTHEAST NEBRASKA AND IOWA...

CITY           SKY/WX    TMP DP  RH WIND       PRES   REMARKS
TOPEKA         PTCLDY    67  37  33 W12       29.73R
6HR MIN TEMP:  67; 6HR MAX TEMP:  78;

MANHATTAN      CLEAR     58  34  40 SW6       29.74R
EMPORIA        CLEAR     61  35  37 W10       29.78R
CHANUTE        MOCLDY    65  41  41 S12       29.79R
WICHITA        MOCLDY    62  34  35 SW5       29.83R
OMAHA          PTCLDY    49  34  56 NW5       29.69S
LINCOLN        CLEAR     51  34  52 CALM      29.72R
FALLS CITY     CLEAR     59  36  42 W12       29.69R
LAMONI         MOCLDY    54  39  57 SE8       29.67S
DES MOINES     CLOUDY    50  37  61 E7        29.71R

$$




USA.gov is the U.S. government's official web portal to all federal, state and local government web resources and services.